SCP
0 0 0 0 0 0 0 0 0 0 0 0 0 0 0 -0 -0 0 0 0 0 0 0 0 0 0 0 -0 0 0 0 0 0 0 0 0 0 0 0 -0 0 0 0 0
0 0 0 0 0 0 0 0 0 0 0 0 -0 0 -0 0 0 -0 -0 0 -0 0 0 0 0 0 0 0 0 -0 0 0 0 0 0 0 0 0 0 0 0 -0 0 -0
0 0 0 0 0 0 0 0 0 -0 -0 -0 0 0 -0 -0 -0 0 0 0 0 0 0 0 0 0 0 0 0 0 1 0 0 -0 0 0 0 0 0 0 0 0 0 0
0 0 0 0 0 0 0 0 0 0 -0 -0 0 0 0 -0 -0 -0 0 -0 0 -0 0 0 0 0 0 0 0 0 0 0 0 0 0 0 0 0 0 0 0 0 0 0
0 0 0 0 0 0 0 0 0 0 0 0 0 0 -0 -0 -0 -0 0 0 0 0 -0 0 0 0 0 0 0 0 1 0 0 0 0 0 0 0 0 0 0 0 0 0
0 0 0 0 0 0 0 0 0 -0 0 0 0 0 -0 0 -0 0 0 -0 0 0 0 0 0 0 0 0 0 0 0 0 0 0 0 0 0 0 0 0 0 0 0 0
0 0 0 0 0 0 0 0 0 0 0 0 0 -0 -0 -0 -0 0 0 0 0 0 0 0 0 0 0 0 0 0 0 0 0 0 0 0 0 0 0 0 0 0 0 0
0 0 0 0 0 0 0 0 -0 0 0 0 0 -0 -0 -0 0 0 0 0 0 0 0 0 0 0 0 0 0 0 0 0 0 0 0 0 0 0 0 0 0 0 0 0
0 0 0 0 0 0 0 -0 0 0 0 0 -0 -0 0 0 0 0 0 0 0 0 0 0 0 0 0 0 0 0 0 0 0 0 0 0 0 0 0 0 0 0 0 0
0 0 0 0 0 -0 0 -0 -0 -0 0 0 0 0 -0 0 0 0 0 0 -0 0 0 0 0 0 0 0 0 0 0 0 0 0 0 0 0 0 0 0 0 0 0 0
0 0 0 -0 -0 -0 -0 -0 -0 -0 0 0 -0 -0 -0 -0 0 0 0 0 0 0 0 0 0 0 0 0 0 0 0 0 0 0 0 0 0 0 0 0 0 0 0 0
0 0 -0 -0 -0 -0 0 0 -0 0 0 0 0 0 -0 -0 -0 0 0 0 0 0 0 0 0 0 0 0 0 0 0 0 0 0 0 0 0 0 0 0 0 0 0 0
0 0 -0 -0 -0 -0 -0 -0 -0 0 0 0 0 0 -0 -0 -0 0 0 0 0 0 0 0 0 0 0 0 0 0 0 0 0 0 0 0 0 0 0 0 0 0 0 0
0 0 -0 -0 -0 -0 -0 -0 0 0 0 0 0 0 0 -0 -0 0 0 0 0 0 0 0 0 0 0 -0 0 0 0 0 0 0 0 0 0 0 0 0 0 0 0 0
0 -0 -0 -0 -0 -0 -0 -0 0 0 0 0 0 0 0 0 -0 0 0 0 0 0 0 0 0 0 0 0 0 0 0 0 0 0 0 0 0 0 0 0 0 0 0 0
-0 -0 -0 -0 -0 -0 0 0 -0 0 0 0 0 0 0 0 0 0 0 0 0 0 0 0 0 0 0 0 0 0 0 0 0 0 0 0 0 0 0 0 0 0 0 0
0 -0 0 -0 -0 0 0 0 0 0 0 0 0 0 -0 0 0 0 0 0 0 0 0 0 0 0 0 0 0 0 0 0 0 0 0 0 0 0 0 0 0 0 0 0
0 0 0 -0 -0 -0 0 -0 -0 0 0 0 0 0 -0 -0 0 0 0 0 0 0 0 0 0 0 0 0 0 -0 0 0 0 0 0 0 0 0 0 0 0 0 0 0
-0 0 -0 0 -0 -0 -0 -0 0 0 0 0 0 0 0 -0 0 0 0 0 0 0 0 0 0 0 0 0 -0 0 0 0 0 0 0 0 0 0 0 0 0 0 0 0
-0 0 0 -0 0 0 -0 0 0 0 0 0 0 0 0 0 0 0 0 0 0 0 0 0 0 0 0 0 0 0 0 0 0 0 0 0 0 0 0 0 0 0 0 0
0 0 0 -0 -0 0 0 0 0 0 0 0 0 0 0 0 0 0 0 0 0 0 0 0 0 0 0 0 0 0 0 0 0 0 0 0 0 0 0 0 0 0 0 0
0 0 0 0 0 0 0 0 0 0 0 0 0 0 0 0 0 0 0 0 0 0 0 0 0 0 0 0 0 0 0 0 0 0 0 0 0 0 0 0 0 0 0 0
0 0 0 0 0 0 0 0 0 0 0 0 0 0 0 0 0 0 0 0 0 0 0 0 0 0 0 0 0 0 0 0 0 0 0 0 0 0 0 0 0 0 0 0
0 0 -0 0 0 0 0 -0 -0 0 0 0 0 0 0 0 0 0 0 0 0 0 0 0 0 0 0 0 0 0 0 0 0 0 0 0 0 0 0 0 0 0 0 0
0 0 0 0 0 0 0 0 0 0 0 0 0 0 0 0 0 0 0 0 0 0 0 0 0 0 0 0 0 0 0 0 0 0 0 0 0 0 0 0 0 0 0 0
0 0 0 0 0 0 0 0 0 0 0 0 0 0 0 0 0 0 0 0 0 0 0 0 0 0 0 0 0 0 0 0 0 0 0 0 0 0 0 0 0 0 0 0
0 0 -0 0 0 0 0 0 0 0 0 0 0 0 0 0 0 0 0 0 0 0 0 0 0 0 0 0 0 0 0 0 0 0 0 0 0 0 0 0 0 0 0 -0
Wind_Speed_500mb
67 72 75 78 67 74 73 27 9 15 50 10 10 9 10 17 18 10 6 12 20 20 20 10 28 26 38 59 38 29 13 9 1 10 7 5 9 18 14 9 7 8 9 9
63 66 73 76 68 60 70 34 18 20 52 4 15 22 26 19 14 16 17 9 10 7 13 9 5 36 42 32 31 9 13 9 8 14 11 9 5 8 8 8 8 12 16 8
60 62 67 74 71 49 50 15 7 12 17 31 23 17 13 5 16 22 18 10 14 7 7 11 12 12 5 18 5 24 18 11 21 8 2 3 11 7 4 13 8 1 9 11
57 58 65 69 73 47 32 9 9 26 8 12 25 17 18 13 9 7 20 12 23 20 7 12 18 11 2 19 6 5 11 9 9 5 5 11 16 20 5 9 12 9 9 15
56 55 61 63 66 57 21 18 14 25 34 36 27 13 12 7 10 13 13 22 20 18 14 19 9 10 3 9 8 6 10 9 19 13 13 9 20 12 9 9 8 15 12 5
53 53 57 56 58 54 20 34 42 23 20 21 20 16 29 16 25 22 18 17 15 17 34 16 13 14 49 10 12 7 10 11 6 6 4 11 9 14 8 9 8 15 4 11
51 52 54 53 50 45 39 34 37 16 10 18 22 29 22 32 33 5 11 16 13 9 37 13 11 30 29 14 9 17 11 11 5 7 8 6 8 12 5 11 18 12 22 21
50 51 52 51 50 45 47 23 26 13 10 26 26 42 19 38 30 6 9 2 7 29 22 9 6 2 8 11 15 13 18 11 8 8 5 9 6 8 8 31 23 23 32 28
48 49 49 50 52 47 48 27 31 32 11 6 37 40 28 10 13 9 0 17 8 8 5 10 6 5 9 4 6 8 10 21 10 7 8 12 6 10 15 12 12 23 36 25
45 48 47 49 50 48 46 31 27 39 12 17 42 10 12 16 17 9 10 9 18 22 1 5 8 6 18 12 11 12 15 8 13 6 9 7 9 12 16 11 8 31 47 48
47 45 48 47 48 46 44 36 25 36 14 50 20 36 22 16 19 6 21 17 8 2 0 5 2 8 8 11 7 13 9 8 5 4 9 7 24 17 10 12 34 48 48 41
47 42 45 45 44 44 42 38 20 27 27 40 39 36 17 15 4 16 20 9 13 13 4 6 2 8 8 12 8 10 6 10 7 8 9 22 52 45 37 42 46 42 39 33
50 41 40 44 42 39 37 44 25 39 18 32 21 17 9 24 10 19 10 17 32 22 22 5 2 15 7 7 7 10 14 16 10 18 17 28 46 51 50 46 43 36 32 32
46 40 41 41 40 39 33 34 12 28 19 9 13 15 13 11 12 19 23 39 42 29 20 9 8 7 12 5 7 11 6 12 11 23 28 48 50 52 48 41 34 33 32 28
42 41 43 40 41 34 27 12 20 12 15 6 18 27 5 9 6 23 19 23 32 21 11 9 7 9 11 8 9 12 9 2 12 7 21 40 40 43 39 40 33 31 24 25
42 44 43 43 33 21 18 7 5 7 13 9 6 14 13 6 11 16 10 23 27 18 18 5 9 6 9 7 9 17 47 62 57 28 67 66 54 45 36 34 27 26 26 24
41 40 36 23 16 14 2 6 22 17 5 6 7 9 6 9 13 6 13 19 16 15 8 15 8 9 16 6 7 28 45 55 64 61 60 51 40 39 33 30 24 27 28 24
35 26 19 16 8 8 9 13 14 8 3 7 3 7 3 4 8 4 15 15 14 19 5 8 6 7 5 7 19 44 46 41 46 43 49 48 44 39 33 28 24 28 27 23
23 15 14 10 9 9 12 15 7 5 4 9 6 3 4 5 1 3 5 9 5 9 4 5 7 4 8 13 34 31 43 37 43 46 40 43 44 39 32 27 25 26 25 23
19 13 10 5 16 23 16 4 3 5 7 10 6 9 3 6 3 0 4 5 2 4 7 9 7 6 29 40 44 41 48 43 36 33 27 46 44 38 31 28 25 24 23 22
16 12 7 19 16 11 5 6 5 6 5 7 1 8 5 11 4 3 3 3 1 4 6 5 2 4 15 41 38 38 35 32 36 37 39 39 40 37 32 27 24 23 22 22
20 17 14 14 7 5 6 4 3 3 4 3 6 3 4 3 4 2 6 2 3 4 7 5 5 7 32 41 35 32 30 36 39 37 39 36 33 31 29 26 23 23 21 19
5 6 6 6 3 4 5 3 2 6 8 3 3 2 8 4 4 4 3 5 3 24 3 5 5 35 41 40 38 31 30 36 41 39 34 33 30 27 25 25 22 20 20 19
3 4 8 6 6 4 7 4 5 18 17 16 5 3 5 2 3 2 4 1 7 5 6 3 9 41 41 40 39 36 40 37 36 36 32 28 26 24 23 22 20 20 19 17
4 5 7 5 8 14 11 13 18 15 16 11 3 7 5 3 6 5 1 2 6 5 2 7 39 49 48 42 38 34 37 39 37 35 33 30 26 23 22 20 18 17 18 16
5 8 8 13 14 12 16 11 19 13 9 2 3 3 4 8 5 6 7 1 3 4 6 39 56 51 40 39 32 28 38 36 37 37 34 29 25 22 21 19 17 14 12 16
5 11 20 10 15 19 19 15 20 18 8 2 2 6 10 7 4 5 3 4 6 26 41 41 47 51 44 36 28 21 40 41 40 36 31 24 18 20 20 17 12 11 10 12
Wind_Direction_500mb
352 354 354 354 352 347 345 357 304 203 170 156 221 222 216 223 173 136 178 272 256 274 291 333 171 187 208 205 224 215 158 117 280 255 65 71 214 173 170 125 275 109 87 258
350 353 354 354 355 358 344 321 270 212 178 269 243 262 256 262 185 176 163 271 225 335 326 323 265 212 203 189 216 224 167 136 53 289 22 10 295 174 199 144 126 150 169 217
351 352 352 355 355 359 342 308 310 356 345 29 331 341 328 295 312 288 191 233 265 251 284 253 297 302 106 67 116 112 82 55 151 205 324 28 343 267 77 104 70 357 20 94
350 351 354 354 355 1 355 321 327 15 326 324 281 285 300 282 258 217 237 213 231 201 211 280 265 290 166 95 3 73 106 101 109 63 345 356 340 323 158 130 106 110 131 123
350 352 354 355 356 359 33 11 345 330 299 297 307 298 213 214 237 229 226 227 240 205 196 210 3 297 288 125 23 52 41 104 115 168 189 79 282 295 355 5 106 77 50 36
350 352 353 356 357 3 358 335 329 307 297 314 341 348 310 323 317 245 218 219 231 236 225 220 294 330 286 241 127 95 76 128 103 105 104 71 228 281 222 157 165 126 131 189
348 351 352 354 355 353 343 332 325 294 300 321 344 307 339 329 302 257 309 282 201 210 166 146 11 324 315 291 138 109 118 89 79 100 57 104 278 328 162 162 41 138 116 86
346 349 351 353 351 348 345 336 331 297 296 312 305 339 360 332 337 352 284 276 113 128 97 85 49 40 341 1 25 106 118 100 106 108 152 99 104 359 14 104 41 33 81 71
345 346 349 351 351 348 345 342 332 301 301 296 355 320 14 344 327 296 157 132 185 165 115 142 127 187 84 142 13 0 96 132 99 135 156 183 175 54 25 88 52 25 66 59
340 342 344 348 348 347 344 343 334 341 290 294 339 341 338 349 335 289 304 336 173 179 200 94 210 157 125 144 136 187 139 143 164 132 97 29 28 38 331 75 186 59 61 67
335 335 340 341 342 346 339 349 350 338 292 300 285 343 352 16 340 336 310 320 64 226 190 95 37 95 205 106 108 116 115 108 142 78 106 149 287 31 83 135 75 81 69 59
336 331 333 335 338 344 336 333 326 335 292 276 301 305 334 345 203 319 312 293 339 359 4 16 16 99 65 126 122 78 78 141 147 135 137 101 93 103 93 90 81 74 72 56
336 335 332 330 335 338 334 326 347 339 305 323 327 250 291 348 30 3 356 322 334 324 344 280 298 74 64 61 71 89 26 110 122 91 113 111 107 96 94 89 85 79 70 54
333 333 330 327 330 332 331 328 17 327 306 311 320 343 304 309 20 344 322 318 322 307 324 21 49 84 78 180 112 97 159 95 100 105 109 86 84 96 96 91 87 75 62 49
331 330 326 325 329 328 335 333 327 305 335 301 294 330 303 311 336 315 290 331 344 341 8 38 31 44 30 13 57 37 29 167 128 131 134 114 112 103 102 87 77 71 63 60
330 327 325 322 325 334 22 25 43 330 340 323 340 313 312 326 322 10 327 355 353 7 28 62 74 45 44 95 89 74 72 89 110 102 113 109 105 99 95 86 78 76 79 67
328 325 323 328 329 330 332 275 303 335 299 282 296 309 270 327 336 13 22 359 1 11 17 38 82 34 4 35 100 113 97 98 114 117 114 107 105 99 98 96 87 94 80 66
327 329 333 337 324 350 339 310 314 322 336 271 344 281 247 321 312 44 7 357 5 17 22 21 78 7 9 80 110 112 114 112 112 118 118 117 117 108 102 99 90 85 74 63
334 336 337 326 359 338 326 307 274 255 268 320 153 301 295 196 98 108 36 359 33 337 339 28 25 17 32 123 122 123 121 116 121 123 126 130 115 111 105 100 90 88 77 67
7 14 351 321 322 324 325 333 149 203 232 223 256 334 325 352 122 236 139 344 303 57 338 21 73 24 79 98 106 111 115 126 135 133 143 121 117 113 106 98 95 90 84 73
8 344 314 297 329 5 315 292 224 217 263 242 132 55 20 15 53 333 138 206 79 87 279 93 101 129 102 112 109 116 124 128 114 113 105 121 123 121 114 105 100 93 86 81
325 317 312 341 345 303 305 270 285 250 279 329 14 95 51 21 347 352 311 208 159 128 136 115 157 150 128 128 129 123 120 120 122 115 110 110 112 117 115 111 105 101 95 88
10 333 292 285 293 316 247 239 115 314 352 65 156 97 356 267 282 300 274 253 109 131 136 202 144 130 140 136 134 131 119 122 117 115 114 114 111 114 115 114 110 103 97 91
318 306 296 234 208 266 32 152 167 276 313 323 314 173 235 356 284 232 245 107 136 203 184 197 142 135 143 147 144 155 138 130 127 126 124 120 116 114 114 112 115 109 93 84
278 269 256 245 10 308 315 332 311 306 302 295 283 271 222 164 263 234 201 201 217 204 153 142 148 149 149 149 145 145 145 141 137 138 133 129 126 119 114 111 106 103 100 83
243 236 266 291 313 321 358 347 288 302 275 284 254 284 242 229 204 232 206 274 105 200 87 128 142 151 145 143 146 151 154 149 147 137 131 130 129 128 123 116 108 97 70 65
243 248 242 266 286 276 280 271 273 328 310 178 241 231 224 215 224 172 87 181 133 115 128 137 151 150 153 153 161 170 141 143 138 135 134 129 128 137 129 120 121 115 103 77
Wind_Speed_850mb
67 72 75 78 67 74 73 27 9 15 50 10 10 9 10 17 18 10 6 12 20 20 20 10 28 26 38 59 38 29 13 9 1 10 7 5 9 18 14 9 7 8 9 9
63 66 73 76 68 60 70 34 18 20 52 4 15 22 26 19 14 16 17 9 10 7 13 9 5 36 42 32 31 9 13 9 8 14 11 9 5 8 8 8 8 12 16 8
60 62 67 74 71 49 50 15 7 12 17 31 23 17 13 5 16 22 18 10 14 7 7 11 12 12 5 18 5 24 18 11 21 8 2 3 11 7 4 13 8 1 9 11
57 58 65 69 73 47 32 9 9 26 8 12 25 17 18 13 9 7 20 12 23 20 7 12 18 11 2 19 6 5 11 9 9 5 5 11 16 20 5 9 12 9 9 15
56 55 61 63 66 57 21 18 14 25 34 36 27 13 12 7 10 13 13 22 20 18 14 19 9 10 3 9 8 6 10 9 19 13 13 9 20 12 9 9 8 15 12 5
53 53 57 56 58 54 20 34 42 23 20 21 20 16 29 16 25 22 18 17 15 17 34 16 13 14 49 10 12 7 10 11 6 6 4 11 9 14 8 9 8 15 4 11
51 52 54 53 50 45 39 34 37 16 10 18 22 29 22 32 33 5 11 16 13 9 37 13 11 30 29 14 9 17 11 11 5 7 8 6 8 12 5 11 18 12 22 21
50 51 52 51 50 45 47 23 26 13 10 26 26 42 19 38 30 6 9 2 7 29 22 9 6 2 8 11 15 13 18 11 8 8 5 9 6 8 8 31 23 23 32 28
48 49 49 50 52 47 48 27 31 32 11 6 37 40 28 10 13 9 0 17 8 8 5 10 6 5 9 4 6 8 10 21 10 7 8 12 6 10 15 12 12 23 36 25
45 48 47 49 50 48 46 31 27 39 12 17 42 10 12 16 17 9 10 9 18 22 1 5 8 6 18 12 11 12 15 8 13 6 9 7 9 12 16 11 8 31 47 48
47 45 48 47 48 46 44 36 25 36 14 50 20 36 22 16 19 6 21 17 8 2 0 5 2 8 8 11 7 13 9 8 5 4 9 7 24 17 10 12 34 48 48 41
47 42 45 45 44 44 42 38 20 27 27 40 39 36 17 15 4 16 20 9 13 13 4 6 2 8 8 12 8 10 6 10 7 8 9 22 52 45 37 42 46 42 39 33
50 41 40 44 42 39 37 44 25 39 18 32 21 17 9 24 10 19 10 17 32 22 22 5 2 15 7 7 7 10 14 16 10 18 17 28 46 51 50 46 43 36 32 32
46 40 41 41 40 39 33 34 12 28 19 9 13 15 13 11 12 19 23 39 42 29 20 9 8 7 12 5 7 11 6 12 11 23 28 48 50 52 48 41 34 33 32 28
42 41 43 40 41 34 27 12 20 12 15 6 18 27 5 9 6 23 19 23 32 21 11 9 7 9 11 8 9 12 9 2 12 7 21 40 40 43 39 40 33 31 24 25
42 44 43 43 33 21 18 7 5 7 13 9 6 14 13 6 11 16 10 23 27 18 18 5 9 6 9 7 9 17 47 62 57 28 67 66 54 45 36 34 27 26 26 24
41 40 36 23 16 14 2 6 22 17 5 6 7 9 6 9 13 6 13 19 16 15 8 15 8 9 16 6 7 28 45 55 64 61 60 51 40 39 33 30 24 27 28 24
35 26 19 16 8 8 9 13 14 8 3 7 3 7 3 4 8 4 15 15 14 19 5 8 6 7 5 7 19 44 46 41 46 43 49 48 44 39 33 28 24 28 27 23
23 15 14 10 9 9 12 15 7 5 4 9 6 3 4 5 1 3 5 9 5 9 4 5 7 4 8 13 34 31 43 37 43 46 40 43 44 39 32 27 25 26 25 23
19 13 10 5 16 23 16 4 3 5 7 10 6 9 3 6 3 0 4 5 2 4 7 9 7 6 29 40 44 41 48 43 36 33 27 46 44 38 31 28 25 24 23 22
16 12 7 19 16 11 5 6 5 6 5 7 1 8 5 11 4 3 3 3 1 4 6 5 2 4 15 41 38 38 35 32 36 37 39 39 40 37 32 27 24 23 22 22
20 17 14 14 7 5 6 4 3 3 4 3 6 3 4 3 4 2 6 2 3 4 7 5 5 7 32 41 35 32 30 36 39 37 39 36 33 31 29 26 23 23 21 19
5 6 6 6 3 4 5 3 2 6 8 3 3 2 8 4 4 4 3 5 3 24 3 5 5 35 41 40 38 31 30 36 41 39 34 33 30 27 25 25 22 20 20 19
3 4 8 6 6 4 7 4 5 18 17 16 5 3 5 2 3 2 4 1 7 5 6 3 9 41 41 40 39 36 40 37 36 36 32 28 26 24 23 22 20 20 19 17
4 5 7 5 8 14 11 13 18 15 16 11 3 7 5 3 6 5 1 2 6 5 2 7 39 49 48 42 38 34 37 39 37 35 33 30 26 23 22 20 18 17 18 16
5 8 8 13 14 12 16 11 19 13 9 2 3 3 4 8 5 6 7 1 3 4 6 39 56 51 40 39 32 28 38 36 37 37 34 29 25 22 21 19 17 14 12 16
5 11 20 10 15 19 19 15 20 18 8 2 2 6 10 7 4 5 3 4 6 26 41 41 47 51 44 36 28 21 40 41 40 36 31 24 18 20 20 17 12 11 10 12
Wind_Direction_850mb
352 354 354 354 352 347 345 357 304 203 170 156 221 222 216 223 173 136 178 272 256 274 291 333 171 187 208 205 224 215 158 117 280 255 65 71 214 173 170 125 275 109 87 258
350 353 354 354 355 358 344 321 270 212 178 269 243 262 256 262 185 176 163 271 225 335 326 323 265 212 203 189 216 224 167 136 53 289 22 10 295 174 199 144 126 150 169 217
351 352 352 355 355 359 342 308 310 356 345 29 331 341 328 295 312 288 191 233 265 251 284 253 297 302 106 67 116 112 82 55 151 205 324 28 343 267 77 104 70 357 20 94
350 351 354 354 355 1 355 321 327 15 326 324 281 285 300 282 258 217 237 213 231 201 211 280 265 290 166 95 3 73 106 101 109 63 345 356 340 323 158 130 106 110 131 123
350 352 354 355 356 359 33 11 345 330 299 297 307 298 213 214 237 229 226 227 240 205 196 210 3 297 288 125 23 52 41 104 115 168 189 79 282 295 355 5 106 77 50 36
350 352 353 356 357 3 358 335 329 307 297 314 341 348 310 323 317 245 218 219 231 236 225 220 294 330 286 241 127 95 76 128 103 105 104 71 228 281 222 157 165 126 131 189
348 351 352 354 355 353 343 332 325 294 300 321 344 307 339 329 302 257 309 282 201 210 166 146 11 324 315 291 138 109 118 89 79 100 57 104 278 328 162 162 41 138 116 86
346 349 351 353 351 348 345 336 331 297 296 312 305 339 360 332 337 352 284 276 113 128 97 85 49 40 341 1 25 106 118 100 106 108 152 99 104 359 14 104 41 33 81 71
345 346 349 351 351 348 345 342 332 301 301 296 355 320 14 344 327 296 157 132 185 165 115 142 127 187 84 142 13 0 96 132 99 135 156 183 175 54 25 88 52 25 66 59
340 342 344 348 348 347 344 343 334 341 290 294 339 341 338 349 335 289 304 336 173 179 200 94 210 157 125 144 136 187 139 143 164 132 97 29 28 38 331 75 186 59 61 67
335 335 340 341 342 346 339 349 350 338 292 300 285 343 352 16 340 336 310 320 64 226 190 95 37 95 205 106 108 116 115 108 142 78 106 149 287 31 83 135 75 81 69 59
336 331 333 335 338 344 336 333 326 335 292 276 301 305 334 345 203 319 312 293 339 359 4 16 16 99 65 126 122 78 78 141 147 135 137 101 93 103 93 90 81 74 72 56
336 335 332 330 335 338 334 326 347 339 305 323 327 250 291 348 30 3 356 322 334 324 344 280 298 74 64 61 71 89 26 110 122 91 113 111 107 96 94 89 85 79 70 54
333 333 330 327 330 332 331 328 17 327 306 311 320 343 304 309 20 344 322 318 322 307 324 21 49 84 78 180 112 97 159 95 100 105 109 86 84 96 96 91 87 75 62 49
331 330 326 325 329 328 335 333 327 305 335 301 294 330 303 311 336 315 290 331 344 341 8 38 31 44 30 13 57 37 29 167 128 131 134 114 112 103 102 87 77 71 63 60
330 327 325 322 325 334 22 25 43 330 340 323 340 313 312 326 322 10 327 355 353 7 28 62 74 45 44 95 89 74 72 89 110 102 113 109 105 99 95 86 78 76 79 67
328 325 323 328 329 330 332 275 303 335 299 282 296 309 270 327 336 13 22 359 1 11 17 38 82 34 4 35 100 113 97 98 114 117 114 107 105 99 98 96 87 94 80 66
327 329 333 337 324 350 339 310 314 322 336 271 344 281 247 321 312 44 7 357 5 17 22 21 78 7 9 80 110 112 114 112 112 118 118 117 117 108 102 99 90 85 74 63
334 336 337 326 359 338 326 307 274 255 268 320 153 301 295 196 98 108 36 359 33 337 339 28 25 17 32 123 122 123 121 116 121 123 126 130 115 111 105 100 90 88 77 67
7 14 351 321 322 324 325 333 149 203 232 223 256 334 325 352 122 236 139 344 303 57 338 21 73 24 79 98 106 111 115 126 135 133 143 121 117 113 106 98 95 90 84 73
8 344 314 297 329 5 315 292 224 217 263 242 132 55 20 15 53 333 138 206 79 87 279 93 101 129 102 112 109 116 124 128 114 113 105 121 123 121 114 105 100 93 86 81
325 317 312 341 345 303 305 270 285 250 279 329 14 95 51 21 347 352 311 208 159 128 136 115 157 150 128 128 129 123 120 120 122 115 110 110 112 117 115 111 105 101 95 88
10 333 292 285 293 316 247 239 115 314 352 65 156 97 356 267 282 300 274 253 109 131 136 202 144 130 140 136 134 131 119 122 117 115 114 114 111 114 115 114 110 103 97 91
318 306 296 234 208 266 32 152 167 276 313 323 314 173 235 356 284 232 245 107 136 203 184 197 142 135 143 147 144 155 138 130 127 126 124 120 116 114 114 112 115 109 93 84
278 269 256 245 10 308 315 332 311 306 302 295 283 271 222 164 263 234 201 201 217 204 153 142 148 149 149 149 145 145 145 141 137 138 133 129 126 119 114 111 106 103 100 83
243 236 266 291 313 321 358 347 288 302 275 284 254 284 242 229 204 232 206 274 105 200 87 128 142 151 145 143 146 151 154 149 147 137 131 130 129 128 123 116 108 97 70 65
243 248 242 266 286 276 280 271 273 328 310 178 241 231 224 215 224 172 87 181 133 115 128 137 151 150 153 153 161 170 141 143 138 135 134 129 128 137 129 120 121 115 103 77